カタログに戻る

NOAA 17 DEB

運用中PO
NORAD 48707·DEBRIS·🇺🇸 United States

打ち上げ Jun 24, 2002 から Vandenberg Space Force Base

Loading…

次のパス (今後24時間)

TLE

最新Source: Space-Track

元期: Sep 14, 2026, 11:02 UTC

1 48707U 02032AQ  26257.46006682  .00007752  00000-0  97045-3 0  9996
2 48707  98.7605 335.0550 0032391  13.9733 346.2366 14.82214808292100

AllMySatでNOAA 17 DEBをリアルタイム追跡

Download on the App Store